When you browse on this site, cookies collect data to enhance your experience and personalize the content and advertising you see.
Visit our Privacy Policy to learn more. By continuing to use the site, you agree to this use of cookies and data.
  • In Hungary
  • List of Countries
  • For 7 days
  • Water Temperature
  • Weather Map
  • News
  • Weather Widgets
  • user-avatar
    Login

    Hourly Weather Primorsko

    Today, 14 November, Thursday

    Time Temperature Precipitation Wind Pressure Humidity
    00:00 +19°C° 0 mm 1 mps 758 mmHg 70%
    01:00 +18°C° 0 mm 2 mps 757 mmHg 71%
    02:00 +18°C° 0 mm 3 mps 757 mmHg 72%
    03:00 +17°C° 0 mm 3 mps 757 mmHg 74%
    04:00 +17°C° 0 mm 2 mps 756 mmHg 76%
    05:00 +17°C° 0 mm 2 mps 756 mmHg 78%
    06:00 +17°C° 0 mm 2 mps 756 mmHg 82%
    07:00 +17°C° 0 mm 2 mps 756 mmHg 85%
    08:00 +17°C° 0 mm 2 mps 757 mmHg 89%
    09:00 +18°C° 0 mm 2 mps 756 mmHg 85%
    10:00 +18°C° 0 mm 2 mps 756 mmHg 81%
    11:00 +19°C° 0 mm 2 mps 756 mmHg 78%
    12:00 +20°C° 0 mm 2 mps 756 mmHg 69%
    13:00 +21°C° 0 mm 2 mps 756 mmHg 61%
    14:00 +23°C° 0 mm 2 mps 756 mmHg 52%
    15:00 +21°C° 0 mm 2 mps 756 mmHg 59%
    16:00 +20°C° 0 mm 2 mps 756 mmHg 65%
    17:00 +18°C° 0 mm 2 mps 756 mmHg 72%
    18:00 +18°C° 0.1 mm 2 mps 756 mmHg 73%
    19:00 +18°C° 0.1 mm 2 mps 757 mmHg 74%
    20:00 +17°C° 0.1 mm 3 mps 757 mmHg 75%
    21:00 +17°C° 0 mm 3 mps 757 mmHg 77%
    22:00 +17°C° 0 mm 3 mps 757 mmHg 78%
    23:00 +17°C° 0 mm 4 mps 757 mmHg 80%

    Tomorrow, 15 November, Friday

    Time Temperature Precipitation Wind Pressure Humidity
    00:00 +15°C° 0 mm 4 mps 758 mmHg 81%
    01:00 +16°C° 0 mm 3 mps 758 mmHg 83%
    02:00 +16°C° 0 mm 3 mps 758 mmHg 84%
    03:00 +14°C° 0 mm 3 mps 759 mmHg 86%
    04:00 +14°C° 0 mm 3 mps 759 mmHg 87%
    05:00 +14°C° 0 mm 3 mps 759 mmHg 88%
    06:00 +14°C° 0 mm 3 mps 760 mmHg 88%
    07:00 +15°C° 0 mm 2 mps 760 mmHg 88%
    08:00 +15°C° 0 mm 2 mps 761 mmHg 87%
    09:00 +17°C° 0 mm 2 mps 761 mmHg 78%
    10:00 +19°C° 0 mm 2 mps 761 mmHg 69%
    11:00 +21°C° 0 mm 2 mps 761 mmHg 60%
    12:00 +21°C° 0 mm 2 mps 761 mmHg 58%
    13:00 +21°C° 0 mm 2 mps 762 mmHg 56%
    14:00 +23°C° 0 mm 2 mps 762 mmHg 54%
    15:00 +21°C° 0 mm 2 mps 762 mmHg 58%
    16:00 +20°C° 0 mm 2 mps 762 mmHg 63%
    17:00 +18°C° 0 mm 2 mps 762 mmHg 67%
    18:00 +18°C° 0 mm 2 mps 762 mmHg 69%
    19:00 +17°C° 0 mm 2 mps 763 mmHg 71%
    20:00 +17°C° 0 mm 2 mps 763 mmHg 73%
    21:00 +16°C° 0 mm 2 mps 763 mmHg 74%
    22:00 +16°C° 0 mm 2 mps 764 mmHg 75%
    23:00 +16°C° 0 mm 2 mps 764 mmHg 76%

    Day after tomorrow, 16 November, Saturday

    Time Temperature Precipitation Wind Pressure Humidity
    00:00 +15°C° 0 mm 2 mps 764 mmHg 77%
    01:00 +15°C° 0 mm 2 mps 764 mmHg 77%
    02:00 +15°C° 0 mm 1 mps 765 mmHg 78%
    03:00 +15°C° 0 mm 1 mps 764 mmHg 79%
    04:00 +14°C° 0 mm 1 mps 764 mmHg 79%
    05:00 +14°C° 0 mm 1 mps 764 mmHg 80%
    06:00 +14°C° 0 mm 1 mps 765 mmHg 78%
    07:00 +15°C° 0 mm 1 mps 765 mmHg 77%
    08:00 +15°C° 0 mm 1 mps 765 mmHg 75%
    09:00 +18°C° 0 mm 1 mps 765 mmHg 69%
    10:00 +20°C° 0 mm 1 mps 765 mmHg 63%
    11:00 +22°C° 0 mm 1 mps 765 mmHg 56%
    12:00 +21°C° 0 mm 2 mps 765 mmHg 57%
    13:00 +21°C° 0 mm 3 mps 765 mmHg 58%
    14:00 +21°C° 0 mm 3 mps 765 mmHg 59%
    15:00 +20°C° 0 mm 3 mps 765 mmHg 67%
    16:00 +18°C° 0 mm 3 mps 765 mmHg 76%
    17:00 +17°C° 0 mm 3 mps 764 mmHg 84%
    18:00 +16°C° 0 mm 3 mps 765 mmHg 87%
    19:00 +16°C° 0 mm 2 mps 765 mmHg 90%
    20:00 +15°C° 0 mm 2 mps 765 mmHg 93%
    21:00 +15°C° 0 mm 2 mps 765 mmHg 94%
    22:00 +15°C° 0 mm 2 mps 765 mmHg 94%
    23:00 +15°C° 0 mm 2 mps 765 mmHg 95%

    17 November, Sunday

    Time Temperature Precipitation Wind Pressure Humidity
    00:00 +15°C° 0 mm 2 mps 765 mmHg 95%
    01:00 +15°C° 0 mm 2 mps 764 mmHg 95%
    02:00 +15°C° 0 mm 2 mps 764 mmHg 95%
    03:00 +15°C° 0 mm 2 mps 764 mmHg 96%
    04:00 +14°C° 0 mm 3 mps 764 mmHg 96%
    05:00 +14°C° 0 mm 3 mps 764 mmHg 96%
    06:00 +14°C° 0 mm 3 mps 764 mmHg 95%
    07:00 +14°C° 0 mm 3 mps 764 mmHg 94%
    08:00 +14°C° 0 mm 3 mps 764 mmHg 93%
    09:00 +16°C° 0 mm 3 mps 764 mmHg 87%
    10:00 +17°C° 0 mm 3 mps 764 mmHg 81%
    11:00 +19°C° 0 mm 3 mps 764 mmHg 74%
    12:00 +19°C° 0 mm 3 mps 763 mmHg 73%
    13:00 +19°C° 0 mm 3 mps 763 mmHg 72%
    14:00 +19°C° 0 mm 3 mps 763 mmHg 72%
    15:00 +18°C° 0 mm 3 mps 763 mmHg 79%
    16:00 +17°C° 0 mm 3 mps 763 mmHg 86%
    17:00 +16°C° 0 mm 2 mps 763 mmHg 92%
    18:00 +16°C° 0 mm 2 mps 763 mmHg 94%
    19:00 +15°C° 0 mm 2 mps 763 mmHg 95%
    20:00 +15°C° 0 mm 2 mps 763 mmHg 96%
    21:00 +15°C° 0 mm 1 mps 763 mmHg 96%
    22:00 +15°C° 0 mm 1 mps 763 mmHg 96%
    23:00 +14°C° 0 mm 1 mps 763 mmHg 96%

    18 November, Monday

    Time Temperature Precipitation Wind Pressure Humidity
    00:00 +14°C° 0 mm 1 mps 762 mmHg 95%
    01:00 +14°C° 0 mm 1 mps 762 mmHg 94%
    02:00 +14°C° 0 mm 1 mps 762 mmHg 93%
    03:00 +14°C° 0 mm 1 mps 762 mmHg 92%
    04:00 +14°C° 0 mm 1 mps 762 mmHg 91%
    05:00 +14°C° 0 mm 1 mps 762 mmHg 90%
    06:00 +14°C° 0 mm 1 mps 762 mmHg 87%
    07:00 +15°C° 0 mm 1 mps 762 mmHg 85%
    08:00 +15°C° 0 mm 2 mps 761 mmHg 82%
    09:00 +17°C° 0 mm 2 mps 762 mmHg 73%
    10:00 +19°C° 0 mm 2 mps 762 mmHg 65%
    11:00 +21°C° 0 mm 2 mps 762 mmHg 56%
    12:00 +21°C° 0 mm 3 mps 762 mmHg 55%
    13:00 +22°C° 0 mm 3 mps 761 mmHg 54%
    14:00 +22°C° 0 mm 4 mps 761 mmHg 54%
    15:00 +21°C° 0 mm 3 mps 761 mmHg 59%
    16:00 +20°C° 0 mm 3 mps 762 mmHg 64%
    17:00 +19°C° 0 mm 2 mps 762 mmHg 69%
    18:00 +18°C° 0 mm 2 mps 762 mmHg 72%
    19:00 +17°C° 0 mm 2 mps 762 mmHg 76%
    20:00 +17°C° 0 mm 2 mps 762 mmHg 80%
    21:00 +17°C° 0 mm 2 mps 763 mmHg 82%
    22:00 +16°C° 0 mm 2 mps 763 mmHg 85%
    23:00 +16°C° 0 mm 2 mps 763 mmHg 88%

    19 November, Tuesday

    Time Temperature Precipitation Wind Pressure Humidity
    00:00 +16°C° 0 mm 2 mps 763 mmHg 89%
    01:00 +16°C° 0 mm 2 mps 763 mmHg 90%
    02:00 +16°C° 0 mm 2 mps 763 mmHg 91%
    03:00 +16°C° 0 mm 2 mps 763 mmHg 91%
    04:00 +15°C° 0 mm 2 mps 763 mmHg 91%
    05:00 +15°C° 0 mm 2 mps 763 mmHg 91%
    06:00 +16°C° 0 mm 2 mps 763 mmHg 89%
    07:00 +16°C° 0 mm 2 mps 763 mmHg 87%
    08:00 +16°C° 0 mm 2 mps 763 mmHg 85%
    09:00 +18°C° 0 mm 2 mps 763 mmHg 77%
    10:00 +20°C° 0 mm 2 mps 763 mmHg 69%
    11:00 +21°C° 0 mm 2 mps 764 mmHg 60%
    12:00 +22°C° 0 mm 3 mps 763 mmHg 58%
    13:00 +22°C° 0 mm 3 mps 763 mmHg 55%
    14:00 +22°C° 0 mm 3 mps 762 mmHg 53%
    15:00 +21°C° 0 mm 3 mps 762 mmHg 58%
    16:00 +20°C° 0 mm 3 mps 762 mmHg 63%
    17:00 +19°C° 0 mm 2 mps 762 mmHg 68%
    18:00 +18°C° 0 mm 2 mps 762 mmHg 71%
    19:00 +17°C° 0 mm 2 mps 763 mmHg 74%
    20:00 +17°C° 0 mm 3 mps 763 mmHg 77%
    21:00 +17°C° 0 mm 2 mps 763 mmHg 79%
    22:00 +16°C° 0 mm 2 mps 763 mmHg 80%
    23:00 +16°C° 0 mm 2 mps 763 mmHg 82%
    Show more